�������C�����ː����j�^�v���󋵏��
Date,Time,Cs137(Bq/L),Cs134(Bq/L),�S��(Bq/L)
2017/06/28,00:00,0.55,0.026,ND
2017/06/28,00:10,0.54,0.027,ND
2017/06/28,00:20,0.57,ND,ND
2017/06/28,00:30,0.57,ND,ND
2017/06/28,00:40,0.52,0.025,ND
2017/06/28,00:50,0.53,ND,ND
2017/06/28,01:00,0.52,ND,ND
2017/06/28,01:10,0.56,ND,ND
2017/06/28,01:20,0.58,ND,ND
2017/06/28,01:30,0.56,ND,ND
2017/06/28,01:40,0.62,ND,ND
2017/06/28,01:50,0.62,ND,ND
2017/06/28,02:00,0.59,ND,ND
2017/06/28,02:10,0.60,ND,ND
2017/06/28,02:20,0.59,ND,ND
2017/06/28,02:30,0.61,ND,ND
2017/06/28,02:40,0.64,ND,ND
2017/06/28,02:50,0.64,ND,ND
2017/06/28,03:00,0.65,ND,ND
2017/06/28,03:10,0.57,ND,ND
2017/06/28,03:20,0.57,ND,ND
2017/06/28,03:30,0.57,ND,ND
2017/06/28,03:40,0.62,ND,ND
2017/06/28,03:50,0.62,ND,ND
2017/06/28,04:00,0.64,ND,ND
2017/06/28,04:10,0.64,0.027,ND
2017/06/28,04:20,0.59,0.030,ND
2017/06/28,04:30,0.60,0.039,ND
2017/06/28,04:40,0.62,0.037,ND
2017/06/28,04:50,0.53,0.035,ND
2017/06/28,05:00,0.53,0.030,ND
2017/06/28,05:10,0.54,0.029,ND
2017/06/28,05:20,0.52,0.039,ND
2017/06/28,05:30,0.61,0.035,ND
2017/06/28,05:40,0.53,0.038,ND
2017/06/28,05:50,0.56,0.027,ND
2017/06/28,06:00,0.56,0.026,ND
2017/06/28,06:10,0.58,ND,ND
2017/06/28,06:20,0.60,ND,ND
2017/06/28,06:30,0.59,ND,ND
2017/06/28,06:40,0.60,ND,ND
2017/06/28,06:50,0.62,ND,ND
2017/06/28,07:00,0.71,ND,ND
2017/06/28,07:10,0.68,0.035,ND
2017/06/28,07:20,0.70,0.029,ND
2017/06/28,07:30,0.67,0.035,ND
2017/06/28,07:40,0.61,0.038,ND
2017/06/28,07:50,0.62,0.032,ND
2017/06/28,08:00,0.64,0.031,ND
2017/06/28,08:10,0.74,ND,ND
2017/06/28,08:20,0.74,ND,ND
2017/06/28,08:30,0.70,0.027,ND
2017/06/28,08:40,0.73,ND,ND
2017/06/28,08:50,0.70,ND,ND
2017/06/28,09:00,0.70,ND,ND
2017/06/28,09:10,0.69,ND,ND
2017/06/28,09:20,0.70,ND,ND
2017/06/28,09:30,0.70,ND,ND
2017/06/28,09:40,0.69,ND,ND
2017/06/28,09:50,0.67,ND,ND
2017/06/28,10:00,0.65,ND,ND
2017/06/28,10:10,0.65,ND,ND
2017/06/28,10:20,0.62,ND,ND
2017/06/28,10:30,0.61,ND,ND
2017/06/28,10:40,0.61,ND,ND
2017/06/28,10:50,0.62,ND,ND
2017/06/28,11:00,0.61,ND,ND
2017/06/28,11:10,0.59,ND,ND
2017/06/28,11:20,0.60,ND,ND
2017/06/28,11:30,0.59,ND,ND
2017/06/28,11:40,0.59,ND,ND
2017/06/28,11:50,0.68,ND,ND
2017/06/28,12:00,0.67,ND,ND
2017/06/28,12:10,0.64,ND,ND
2017/06/28,12:20,0.63,ND,ND
2017/06/28,12:30,0.65,ND,ND
2017/06/28,12:40,0.63,ND,ND
2017/06/28,12:50,0.59,0.029,ND
2017/06/28,13:00,0.62,ND,ND
2017/06/28,13:10,0.62,ND,ND
2017/06/28,13:20,0.61,ND,ND
2017/06/28,13:30,0.59,ND,ND
2017/06/28,13:40,0.62,ND,ND
2017/06/28,13:50,0.62,ND,ND
2017/06/28,14:00,0.61,ND,ND
2017/06/28,14:10,0.63,ND,ND
2017/06/28,14:20,0.67,ND,ND
2017/06/28,14:30,0.68,ND,ND
2017/06/28,14:40,0.65,ND,ND
2017/06/28,14:50,0.61,ND,ND
2017/06/28,15:00,0.63,ND,ND
2017/06/28,15:10,0.62,ND,ND
2017/06/28,15:20,0.63,ND,ND
2017/06/28,15:30,0.64,ND,ND
2017/06/28,15:40,0.62,ND,ND
2017/06/28,15:50,0.62,ND,ND
2017/06/28,16:00,0.63,0.027,ND
2017/06/28,16:10,0.63,0.031,ND
2017/06/28,16:20,0.62,0.032,ND
2017/06/28,16:30,0.61,0.030,ND
2017/06/28,16:40,0.67,ND,ND
2017/06/28,16:50,0.67,ND,ND
2017/06/28,17:00,0.65,ND,ND
2017/06/28,17:10,0.56,ND,ND
2017/06/28,17:20,0.55,ND,ND
2017/06/28,17:30,0.55,ND,ND
2017/06/28,17:40,0.57,ND,ND
2017/06/28,17:50,0.52,0.030,ND
2017/06/28,18:00,0.52,0.029,ND
2017/06/28,18:10,0.56,ND,ND
2017/06/28,18:20,0.56,ND,ND
2017/06/28,18:30,0.56,ND,ND
2017/06/28,18:40,0.54,ND,ND
2017/06/28,18:50,0.54,ND,ND
2017/06/28,19:00,0.53,ND,ND
2017/06/28,19:10,0.54,ND,ND
2017/06/28,19:20,0.54,ND,ND
2017/06/28,19:30,0.50,0.025,ND
2017/06/28,19:40,0.52,0.026,ND
2017/06/28,19:50,0.52,0.028,ND
2017/06/28,20:00,0.52,0.034,ND
2017/06/28,20:10,0.52,0.034,ND
2017/06/28,20:20,0.50,0.049,ND
2017/06/28,20:30,0.59,ND,ND
2017/06/28,20:40,0.52,0.052,ND
2017/06/28,20:50,0.61,ND,ND
2017/06/28,21:00,0.63,ND,ND
2017/06/28,21:10,0.65,ND,ND
2017/06/28,21:20,0.62,0.028,ND
2017/06/28,21:30,0.69,ND,ND
2017/06/28,21:40,0.72,ND,ND
2017/06/28,21:50,0.71,0.026,ND
2017/06/28,22:00,0.78,ND,ND
2017/06/28,22:10,0.75,0.030,ND
2017/06/28,22:20,0.77,0.035,ND
2017/06/28,22:30,0.78,0.046,ND
2017/06/28,22:40,0.80,0.051,ND
2017/06/28,22:50,0.81,0.056,ND
2017/06/28,23:00,0.77,0.053,ND
2017/06/28,23:10,0.75,0.050,ND
2017/06/28,23:20,0.76,0.040,ND
2017/06/28,23:30,0.73,0.041,ND
2017/06/28,23:40,0.75,0.035,ND
2017/06/28,23:50,0.74,0.029,ND
